| time (UTC) | temp F | wind direction | speed MPH | gust MPH | rain 1hr in | rain 24hr in | rain mn in | humidity % | barometer mb |
| 20260906223053 | 66 | 339 | 11.0 | 16.0 | 0.00 | 0.00 | 0.00 | 73 | 1016.2 |
| 20260906222519 | 67 | 310 | 10.0 | 16.0 | 0.00 | 0.00 | 0.00 | 72 | 1016.1 |
| 20260906222025 | 67 | 344 | 11.0 | 15.0 | 0.00 | 0.00 | 0.00 | 73 | 1016.0 |
| 20260906221550 | 67 | 352 | 8.0 | 14.0 | 0.00 | 0.00 | 0.00 | 73 | 1016.1 |
| 20260906221025 | 67 | 343 | 10.0 | 15.0 | 0.00 | 0.00 | 0.00 | 72 | 1016.1 |
| 20260906220519 | 67 | 318 | 10.0 | 15.0 | 0.00 | 0.00 | 0.00 | 72 | 1016.1 |
| 20260906220059 | 67 | 342 | 9.0 | 13.0 | 0.00 | 0.00 | 0.00 | 72 | 1016.0 |
| 20260906215520 | 68 | 328 | 6.0 | 10.0 | 0.00 | 0.00 | 0.00 | 71 | 1016.0 |
| 20260906215016 | 68 | 5 | 7.0 | 10.0 | 0.00 | 0.00 | 0.00 | 71 | 1016.0 |
| 20260906214538 | 68 | 360 | 6.0 | 9.0 | 0.00 | 0.00 | 0.00 | 71 | 1016.2 |
| 20260906214019 | 68 | 352 | 3.0 | 5.0 | 0.00 | 0.00 | 0.00 | 71 | 1016.2 |
| 20260906213520 | 68 | 42 | 1.0 | 5.0 | 0.00 | 0.00 | 0.00 | 70 | 1016.1 |
| 20260906213037 | 68 | 350 | 1.0 | 4.0 | 0.00 | 0.00 | 0.00 | 70 | 1016.2 |
| 20260906212518 | 68 | 67 | 3.0 | 4.0 | 0.00 | 0.00 | 0.00 | 70 | 1016.2 |
| 20260906212018 | 68 | 71 | 2.0 | 5.0 | 0.00 | 0.00 | 0.00 | 70 | 1016.2 |
| 20260906211535 | 68 | 27 | 1.0 | 5.0 | 0.00 | 0.00 | 0.00 | 70 | 1016.3 |
| 20260906211022 | 68 | 81 | 1.0 | 6.0 | 0.00 | 0.00 | 0.00 | 71 | 1016.4 |
| 20260906210518 | 68 | 57 | 2.0 | 6.0 | 0.00 | 0.00 | 0.00 | 71 | 1016.5 |
| 20260906210039 | 68 | 43 | 3.0 | 9.0 | 0.00 | 0.00 | 0.00 | 70 | 1016.5 |
| 20260906205520 | 68 | 59 | 4.0 | 9.0 | 0.00 | 0.00 | 0.00 | 71 | 1016.5 |
| 20260906205019 | 68 | 53 | 2.0 | 6.0 | 0.00 | 0.00 | 0.00 | 71 | 1016.5 |
| 20260906204538 | 68 | 29 | 3.0 | 9.0 | 0.00 | 0.00 | 0.00 | 71 | 1016.5 |
| 20260906204017 | 67 | 62 | 2.0 | 9.0 | 0.00 | 0.00 | 0.00 | 71 | 1016.5 |
| 20260906203519 | 68 | 78 | 4.0 | 7.0 | 0.00 | 0.00 | 0.00 | 71 | 1016.4 |
| 20260906203036 | 68 | 65 | 4.0 | 9.0 | 0.00 | 0.00 | 0.00 | 71 | 1016.5 |
| 20260906202518 | 68 | 90 | 5.0 | 9.0 | 0.00 | 0.00 | 0.00 | 70 | 1016.5 |
| 20260906202003 | 68 | 111 | 5.0 | 11.0 | 0.00 | 0.00 | 0.00 | 69 | 1016.4 |
| 20260906201536 | 69 | 82 | 5.0 | 15.0 | 0.00 | 0.00 | 0.00 | 69 | 1016.3 |
| 20260906201020 | 69 | 56 | 6.0 | 13.0 | 0.00 | 0.00 | 0.00 | 69 | 1016.2 |
| 20260906200519 | 68 | 51 | 7.0 | 15.0 | 0.00 | 0.00 | 0.00 | 69 | 1016.3 |
| 20260906200034 | 69 | 81 | 6.0 | 15.0 | 0.00 | 0.00 | 0.00 | 69 | 1016.3 |
| 20260906195519 | 68 | 61 | 6.0 | 14.0 | 0.00 | 0.00 | 0.00 | 71 | 1016.3 |
| 20260906195019 | 67 | 48 | 10.0 | 14.0 | 0.00 | 0.00 | 0.00 | 71 | 1016.4 |
| 20260906194536 | 67 | 42 | 11.0 | 16.0 | 0.00 | 0.00 | 0.00 | 71 | 1016.5 |
| 20260906194016 | 66 | 35 | 8.0 | 15.0 | 0.00 | 0.00 | 0.00 | 72 | 1016.5 |
| 20260906193521 | 66 | 35 | 10.0 | 15.0 | 0.00 | 0.00 | 0.00 | 72 | 1016.6 |
| 20260906193039 | 65 | 20 | 10.0 | 16.0 | 0.00 | 0.00 | 0.00 | 73 | 1016.8 |
| 20260906192505 | 66 | 48 | 11.0 | 17.0 | 0.00 | 0.00 | 0.00 | 73 | 1016.7 |
| 20260906192020 | 65 | 30 | 10.0 | 17.0 | 0.00 | 0.00 | 0.00 | 74 | 1016.5 |
| 20260906191535 | 65 | 45 | 12.0 | 17.0 | 0.00 | 0.00 | 0.00 | 75 | 1016.6 |
| 20260906191020 | 64 | 17 | 11.0 | 17.0 | 0.00 | 0.00 | 0.00 | 75 | 1017.1 |
| 20260906190519 | 65 | 16 | 13.0 | 18.0 | 0.00 | 0.00 | 0.00 | 75 | 1017.1 |
| 20260906190040 | 64 | 327 | 13.0 | 19.0 | 0.00 | 0.00 | 0.00 | 76 | 1017.1 |
| 20260906185519 | 63 | 5 | 13.0 | 19.0 | 0.00 | 0.00 | 0.00 | 77 | 1016.9 |
| 20260906185018 | 62 | 336 | 14.0 | 19.0 | 0.00 | 0.00 | 0.00 | 79 | 1016.8 |
| 20260906184539 | 61 | 18 | 14.0 | 19.0 | 0.00 | 0.00 | 0.00 | 80 | 1017.2 |
| 20260906184017 | 61 | 348 | 13.0 | 19.0 | 0.00 | 0.00 | 0.00 | 80 | 1017.3 |
| 20260906183520 | 61 | 350 | 14.0 | 19.0 | 0.00 | 0.00 | 0.00 | 80 | 1017.5 |
| 20260906183044 | 61 | 360 | 13.0 | 21.0 | 0.00 | 0.00 | 0.00 | 80 | 1017.9 |
| 20260906182519 | 60 | 340 | 15.0 | 20.0 | 0.00 | 0.00 | 0.00 | 81 | 1017.8 |
| 20260906182019 | 60 | 335 | 13.0 | 21.0 | 0.00 | 0.00 | 0.00 | 81 | 1018.0 |
| 20260906181543 | 60 | 350 | 15.0 | 22.0 | 0.00 | 0.00 | 0.00 | 81 | 1017.9 |
| 20260906181018 | 60 | 360 | 15.0 | 22.0 | 0.00 | 0.00 | 0.00 | 81 | 1018.2 |
| 20260906180519 | 60 | 32 | 13.0 | 18.0 | 0.00 | 0.00 | 0.00 | 83 | 1018.2 |
| 20260906180039 | 60 | 350 | 14.0 | 19.0 | 0.00 | 0.00 | 0.00 | 82 | 1018.2 |
| 20260906175518 | 60 | 360 | 15.0 | 20.0 | 0.00 | 0.00 | 0.00 | 82 | 1018.0 |
| 20260906175015 | 59 | 352 | 15.0 | 21.0 | 0.00 | 0.00 | 0.00 | 84 | 1018.2 |
| 20260906174542 | 59 | 340 | 14.0 | 21.0 | 0.00 | 0.00 | 0.00 | 84 | 1018.3 |
| 20260906174020 | 58 | 329 | 15.0 | 20.0 | 0.00 | 0.00 | 0.00 | 85 | 1018.4 |
| 20260906173519 | 58 | 5 | 16.0 | 20.0 | 0.00 | 0.00 | 0.00 | 87 | 1018.3 |
| 20260906173038 | 57 | 352 | 12.0 | 19.0 | 0.00 | 0.00 | 0.00 | 89 | 1018.1 |
| 20260906172519 | 57 | 342 | 12.0 | 20.0 | 0.00 | 0.00 | 0.00 | 90 | 1018.6 |
| 20260906172019 | 56 | 330 | 14.0 | 20.0 | 0.00 | 0.00 | 0.00 | 90 | 1018.8 |
| 20260906171541 | 56 | 360 | 13.0 | 18.0 | 0.00 | 0.00 | 0.00 | 89 | 1018.9 |
| 20260906171017 | 57 | 336 | 12.0 | 16.0 | 0.00 | 0.00 | 0.00 | 88 | 1018.9 |
| 20260906170517 | 57 | 344 | 12.0 | 18.0 | 0.00 | 0.00 | 0.00 | 87 | 1018.8 |
| 20260906170036 | 57 | 351 | 10.0 | 18.0 | 0.00 | 0.00 | 0.00 | 87 | 1019.0 |
| 20260906165521 | 58 | 5 | 11.0 | 17.0 | 0.00 | 0.00 | 0.00 | 85 | 1018.8 |
| 20260906165021 | 58 | 352 | 11.0 | 17.0 | 0.00 | 0.00 | 0.00 | 84 | 1019.1 |
| 20260906164538 | 58 | 331 | 11.0 | 17.0 | 0.00 | 0.00 | 0.00 | 85 | 1019.0 |
| 20260906164018 | 58 | 338 | 10.0 | 16.0 | 0.00 | 0.00 | 0.00 | 85 | 1019.0 |
| 20260906163519 | 59 | 316 | 12.0 | 17.0 | 0.00 | 0.00 | 0.00 | 84 | 1018.9 |
| 20260906163006 | 59 | 338 | 12.0 | 17.0 | 0.00 | 0.00 | 0.00 | 84 | 1018.9 |
| 20260906162518 | 60 | 352 | 10.0 | 14.0 | 0.00 | 0.00 | 0.00 | 84 | 1019.0 |
| 20260906162017 | 60 | 352 | 9.0 | 15.0 | 0.00 | 0.00 | 0.00 | 83 | 1019.1 |
| 20260906161537 | 60 | 346 | 10.0 | 15.0 | 0.00 | 0.00 | 0.00 | 83 | 1019.1 |
| 20260906161018 | 61 | 360 | 9.0 | 12.0 | 0.00 | 0.00 | 0.00 | 82 | 1019.1 |
| 20260906160518 | 61 | 342 | 6.0 | 9.0 | 0.00 | 0.00 | 0.00 | 82 | 1019.1 |
| 20260906160037 | 61 | 5 | 6.0 | 9.0 | 0.00 | 0.00 | 0.00 | 82 | 1019.2 |
| 20260906155521 | 61 | 19 | 4.0 | 8.0 | 0.00 | 0.00 | 0.00 | 82 | 1019.2 |
| 20260906155019 | 61 | 57 | 2.0 | 5.0 | 0.00 | 0.00 | 0.00 | 83 | 1019.1 |
| 20260906154541 | 61 | 55 | 3.0 | 6.0 | 0.00 | 0.00 | 0.00 | 83 | 1019.0 |
| 20260906154020 | 61 | 86 | 3.0 | 6.0 | 0.00 | 0.00 | 0.00 | 83 | 1019.0 |
| 20260906153519 | 61 | 71 | 1.0 | 5.0 | 0.00 | 0.00 | 0.00 | 82 | 1019.1 |
| 20260906153038 | 61 | 71 | 2.0 | 5.0 | 0.00 | 0.00 | 0.00 | 83 | 1019.0 |
| 20260906152520 | 61 | 63 | 3.0 | 6.0 | 0.00 | 0.00 | 0.00 | 82 | 1019.1 |
| 20260906152015 | 61 | 54 | 4.0 | 6.0 | 0.00 | 0.00 | 0.00 | 82 | 1018.9 |
| 20260906151548 | 61 | 57 | 2.0 | 9.0 | 0.00 | 0.00 | 0.00 | 82 | 1018.9 |
| 20260906151019 | 61 | 40 | 3.0 | 9.0 | 0.00 | 0.00 | 0.00 | 82 | 1018.8 |
| 20260906150518 | 61 | 71 | 5.0 | 9.0 | 0.00 | 0.00 | 0.00 | 82 | 1018.9 |
| 20260906150045 | 61 | 53 | 5.0 | 9.0 | 0.00 | 0.00 | 0.00 | 82 | 1019.0 |
| 20260906145518 | 61 | 78 | 5.0 | 10.0 | 0.00 | 0.00 | 0.00 | 82 | 1018.9 |
| 20260906145018 | 61 | 83 | 6.0 | 10.0 | 0.00 | 0.00 | 0.00 | 83 | 1019.0 |
| 20260906144540 | 61 | 50 | 6.0 | 9.0 | 0.00 | 0.00 | 0.00 | 84 | 1019.2 |
| 20260906144023 | 60 | 65 | 4.0 | 6.0 | 0.00 | 0.00 | 0.00 | 85 | 1019.3 |
| 20260906143508 | 59 | 89 | 3.0 | 8.0 | 0.00 | 0.00 | 0.00 | 85 | 1019.5 |
| 20260906143035 | 59 | 114 | 3.0 | 7.0 | 0.00 | 0.00 | 0.00 | 86 | 1019.6 |
| 20260906142517 | 59 | 157 | 1.0 | 4.0 | 0.00 | 0.00 | 0.00 | 86 | 1019.7 |
| 20260906142013 | 59 | 133 | 1.0 | 4.0 | 0.00 | 0.00 | 0.00 | 86 | 1019.6 |
| 20260906141542 | 59 | 171 | 0.0 | 3.0 | 0.00 | 0.00 | 0.00 | 86 | 1019.5 |
| 20260906141017 | 59 | 208 | 1.0 | 3.0 | 0.00 | 0.00 | 0.00 | 86 | 1019.6 |
| 20260906140509 | 59 | 208 | 1.0 | 4.0 | 0.00 | 0.00 | 0.00 | 86 | 1019.6 |
| 20260906140048 | 59 | 208 | 2.0 | 4.0 | 0.00 | 0.00 | 0.00 | 86 | 1019.5 |
| 20260906135519 | 58 | 16 | 0.0 | 3.0 | 0.00 | 0.00 | 0.00 | 86 | 1019.3 |
| 20260906135019 | 58 | 16 | 0.0 | 5.0 | 0.00 | 0.00 | 0.00 | 86 | 1019.1 |
| 20260906134541 | 58 | 13 | 2.0 | 5.0 | 0.00 | 0.00 | 0.00 | 86 | 1019.1 |
| 20260906134018 | 58 | 348 | 1.0 | 2.0 | 0.00 | 0.00 | 0.00 | 86 | 1019.2 |
| 20260906133518 | 58 | 348 | 0.0 | 4.0 | 0.00 | 0.00 | 0.00 | 86 | 1019.4 |
| 20260906133044 | 58 | 348 | 2.0 | 4.0 | 0.00 | 0.00 | 0.00 | 86 | 1019.3 |
| 20260906132516 | 58 | 348 | 2.0 | 4.0 | 0.00 | 0.00 | 0.00 | 86 | 1019.2 |
| 20260906132019 | 58 | 58 | 1.0 | 4.0 | 0.00 | 0.00 | 0.00 | 86 | 1018.9 |
| 20260906131538 | 58 | 46 | 1.0 | 4.0 | 0.00 | 0.00 | 0.00 | 87 | 1019.1 |
| 20260906131019 | 57 | 46 | 1.0 | 5.0 | 0.00 | 0.00 | 0.00 | 87 | 1019.1 |
| 20260906130520 | 57 | 22 | 2.0 | 7.0 | 0.00 | 0.00 | 0.00 | 88 | 1019.1 |
| 20260906130038 | 57 | 42 | 4.0 | 8.0 | 0.00 | 0.00 | 0.00 | 89 | 1019.0 |
| 20260906125517 | 56 | 350 | 2.0 | 4.0 | 0.00 | 0.00 | 0.00 | 88 | 1019.1 |
| 20260906125019 | 56 | 350 | 2.0 | 4.0 | 0.00 | 0.00 | 0.00 | 88 | 1019.3 |
| 20260906124543 | 56 | 350 | 2.0 | 8.0 | 0.00 | 0.00 | 0.00 | 87 | 1019.3 |
| 20260906124016 | 57 | 338 | 3.0 | 8.0 | 0.00 | 0.00 | 0.00 | 87 | 1019.3 |
| 20260906123518 | 57 | 330 | 5.0 | 8.0 | 0.00 | 0.00 | 0.00 | 86 | 1019.1 |
| 20260906123038 | 58 | 338 | 5.0 | 8.0 | 0.00 | 0.00 | 0.00 | 86 | 1019.3 |
| 20260906122519 | 58 | 352 | 4.0 | 5.0 | 0.00 | 0.00 | 0.00 | 86 | 1019.5 |
| 20260906122020 | 57 | 5 | 3.0 | 5.0 | 0.00 | 0.00 | 0.00 | 87 | 1019.6 |
| 20260906121536 | 57 | 360 | 4.0 | 5.0 | 0.00 | 0.00 | 0.00 | 87 | 1019.6 |
| 20260906121017 | 57 | 5 | 3.0 | 5.0 | 0.00 | 0.00 | 0.00 | 87 | 1019.4 |
| 20260906120520 | 57 | 5 | 3.0 | 6.0 | 0.00 | 0.00 | 0.00 | 87 | 1019.3 |
| 20260906120038 | 57 | 352 | 3.0 | 6.0 | 0.00 | 0.00 | 0.00 | 88 | 1019.4 |
| 20260906115519 | 57 | 350 | 4.0 | 8.0 | 0.00 | 0.00 | 0.00 | 88 | 1019.2 |
| 20260906115017 | 56 | 342 | 5.0 | 8.0 | 0.00 | 0.00 | 0.00 | 89 | 1019.1 |
| 20260906114540 | 56 | 9 | 4.0 | 9.0 | 0.00 | 0.00 | 0.00 | 89 | 1019.1 |
| 20260906114018 | 56 | 349 | 6.0 | 9.0 | 0.00 | 0.00 | 0.00 | 89 | 1019.1 |
| 20260906113519 | 56 | 352 | 5.0 | 9.0 | 0.00 | 0.00 | 0.00 | 89 | 1018.8 |
| 20260906113044 | 56 | 12 | 6.0 | 11.0 | 0.00 | 0.00 | 0.00 | 89 | 1018.9 |
| 20260906112513 | 56 | 352 | 7.0 | 11.0 | 0.00 | 0.00 | 0.00 | 90 | 1019.2 |
| 20260906112018 | 56 | 345 | 5.0 | 10.0 | 0.00 | 0.00 | 0.00 | 90 | 1019.1 |
| 20260906111536 | 56 | 352 | 6.0 | 10.0 | 0.00 | 0.00 | 0.00 | 90 | 1019.3 |
| 20260906111019 | 55 | 352 | 5.0 | 9.0 | 0.00 | 0.00 | 0.00 | 90 | 1019.4 |
| 20260906110522 | 55 | 346 | 5.0 | 11.0 | 0.00 | 0.00 | 0.00 | 90 | 1019.3 |
| 20260906110037 | 55 | 340 | 7.0 | 12.0 | 0.00 | 0.00 | 0.00 | 89 | 1019.2 |
| 20260906105518 | 55 | 342 | 8.0 | 13.0 | 0.00 | 0.00 | 0.00 | 89 | 1019.3 |
| 20260906105019 | 56 | 343 | 8.0 | 13.0 | 0.00 | 0.00 | 0.00 | 89 | 1019.3 |
| 20260906104538 | 56 | 360 | 6.0 | 14.0 | 0.00 | 0.00 | 0.00 | 89 | 1019.6 |
| 20260906104017 | 56 | 346 | 9.0 | 14.0 | 0.00 | 0.00 | 0.00 | 89 | 1019.5 |
| 20260906103517 | 56 | 360 | 10.0 | 15.0 | 0.00 | 0.00 | 0.00 | 88 | 1019.4 |
| 20260906103050 | 56 | 350 | 10.0 | 16.0 | 0.00 | 0.00 | 0.00 | 88 | 1019.5 |
| 20260906102522 | 56 | 352 | 11.0 | 16.0 | 0.00 | 0.00 | 0.00 | 87 | 1019.6 |
| 20260906102020 | 56 | 5 | 11.0 | 16.0 | 0.00 | 0.00 | 0.00 | 87 | 1019.5 |
| 20260906101540 | 57 | 10 | 9.0 | 16.0 | 0.00 | 0.00 | 0.00 | 87 | 1019.5 |
| 20260906101021 | 57 | 352 | 12.0 | 16.0 | 0.00 | 0.00 | 0.00 | 88 | 1019.4 |
| 20260906100520 | 56 | 360 | 11.0 | 17.0 | 0.00 | 0.00 | 0.00 | 88 | 1019.5 |
| 20260906100045 | 56 | 5 | 11.0 | 17.0 | 0.00 | 0.00 | 0.00 | 88 | 1019.5 |
| 20260906095517 | 56 | 348 | 11.0 | 17.0 | 0.00 | 0.00 | 0.00 | 88 | 1019.4 |
| 20260906095017 | 56 | 350 | 11.0 | 17.0 | 0.00 | 0.00 | 0.00 | 89 | 1019.5 |
| 20260906094527 | 56 | 344 | 12.0 | 17.0 | 0.00 | 0.00 | 0.00 | 89 | 1019.5 |
| 20260906094018 | 55 | 346 | 13.0 | 16.0 | 0.00 | 0.00 | 0.00 | 89 | 1019.7 |
| 20260906093518 | 55 | 360 | 11.0 | 17.0 | 0.00 | 0.00 | 0.00 | 89 | 1019.7 |
| 20260906093044 | 55 | 342 | 11.0 | 17.0 | 0.00 | 0.00 | 0.00 | 89 | 1019.9 |
| 20260906092523 | 55 | 346 | 11.0 | 17.0 | 0.00 | 0.00 | 0.00 | 90 | 1019.7 |
| 20260906092014 | 55 | 352 | 11.0 | 16.0 | 0.00 | 0.00 | 0.00 | 89 | 1019.5 |
| 20260906091542 | 55 | 342 | 11.0 | 15.0 | 0.00 | 0.00 | 0.00 | 89 | 1019.7 |
| 20260906091019 | 55 | 344 | 10.0 | 16.0 | 0.00 | 0.00 | 0.00 | 89 | 1019.9 |
| 20260906090520 | 55 | 350 | 11.0 | 16.0 | 0.00 | 0.00 | 0.00 | 89 | 1019.9 |
| 20260906090042 | 55 | 351 | 10.0 | 15.0 | 0.00 | 0.00 | 0.00 | 88 | 1019.9 |
| 20260906085519 | 55 | 9 | 8.0 | 12.0 | 0.00 | 0.00 | 0.00 | 88 | 1020.0 |
| 20260906085018 | 55 | 327 | 8.0 | 12.0 | 0.00 | 0.00 | 0.00 | 87 | 1020.0 |
| 20260906084545 | 55 | 344 | 8.0 | 12.0 | 0.00 | 0.00 | 0.00 | 88 | 1020.0 |
| 20260906084020 | 55 | 345 | 8.0 | 13.0 | 0.00 | 0.00 | 0.00 | 87 | 1020.1 |
| 20260906083519 | 55 | 10 | 9.0 | 13.0 | 0.00 | 0.00 | 0.00 | 87 | 1019.9 |
| 20260906083045 | 55 | 346 | 8.0 | 13.0 | 0.00 | 0.00 | 0.00 | 87 | 1019.9 |
| 20260906082521 | 55 | 351 | 10.0 | 13.0 | 0.00 | 0.00 | 0.00 | 87 | 1019.9 |
| 20260906082018 | 55 | 352 | 8.0 | 13.0 | 0.00 | 0.00 | 0.00 | 87 | 1019.9 |
| 20260906081546 | 55 | 345 | 9.0 | 14.0 | 0.00 | 0.00 | 0.00 | 86 | 1020.2 |
| 20260906081019 | 55 | 5 | 10.0 | 13.0 | 0.00 | 0.00 | 0.00 | 86 | 1020.1 |
| 20260906080518 | 55 | 5 | 8.0 | 12.0 | 0.00 | 0.00 | 0.00 | 86 | 1020.4 |
| 20260906080035 | 55 | 15 | 9.0 | 15.0 | 0.00 | 0.00 | 0.00 | 86 | 1020.3 |
| 20260906075519 | 55 | 15 | 8.0 | 15.0 | 0.00 | 0.00 | 0.00 | 86 | 1020.4 |
| 20260906075019 | 55 | 360 | 9.0 | 15.0 | 0.00 | 0.00 | 0.00 | 85 | 1020.4 |
| 20260906074539 | 55 | 352 | 10.0 | 18.0 | 0.00 | 0.00 | 0.00 | 85 | 1020.7 |
| 20260906074016 | 55 | 352 | 10.0 | 18.0 | 0.00 | 0.00 | 0.00 | 85 | 1020.9 |
| 20260906073518 | 55 | 350 | 11.0 | 14.0 | 0.00 | 0.00 | 0.00 | 85 | 1020.9 |
| 20260906073044 | 55 | 347 | 9.0 | 16.0 | 0.00 | 0.00 | 0.00 | 84 | 1020.9 |
| 20260906072519 | 55 | 5 | 9.0 | 14.0 | 0.00 | 0.00 | 0.00 | 84 | 1021.3 |
| 20260906072020 | 55 | 5 | 9.0 | 14.0 | 0.00 | 0.00 | 0.00 | 84 | 1021.0 |
| 20260906071544 | 56 | 352 | 10.0 | 14.0 | 0.00 | 0.00 | 0.00 | 84 | 1021.2 |
| 20260906071018 | 56 | 346 | 10.0 | 14.0 | 0.00 | 0.00 | 0.00 | 83 | 1021.3 |
| 20260906070520 | 56 | 13 | 8.0 | 11.0 | 0.00 | 0.00 | 0.00 | 83 | 1021.1 |
| 20260906070041 | 56 | 352 | 7.0 | 12.0 | 0.00 | 0.00 | 0.00 | 83 | 1021.2 |
| 20260906065521 | 56 | 350 | 7.0 | 12.0 | 0.00 | 0.00 | 0.00 | 82 | 1020.9 |
| 20260906065018 | 57 | 337 | 7.0 | 13.0 | 0.00 | 0.00 | 0.00 | 81 | 1021.1 |
| 20260906064543 | 57 | 352 | 10.0 | 13.0 | 0.00 | 0.00 | 0.00 | 81 | 1021.1 |
| 20260906064020 | 58 | 5 | 9.0 | 12.0 | 0.00 | 0.00 | 0.00 | 80 | 1021.3 |
| 20260906063522 | 58 | 11 | 9.0 | 13.0 | 0.00 | 0.00 | 0.00 | 80 | 1021.0 |
| 20260906063045 | 58 | 15 | 9.0 | 14.0 | 0.00 | 0.00 | 0.00 | 80 | 1021.2 |
| 20260906062518 | 58 | 360 | 8.0 | 14.0 | 0.00 | 0.00 | 0.00 | 80 | 1020.9 |
| 20260906062019 | 58 | 11 | 7.0 | 13.0 | 0.00 | 0.00 | 0.00 | 80 | 1021.1 |
| 20260906061546 | 57 | 5 | 8.0 | 14.0 | 0.00 | 0.00 | 0.00 | 81 | 1021.2 |
| 20260906061019 | 57 | 329 | 10.0 | 14.0 | 0.00 | 0.00 | 0.00 | 81 | 1021.0 |
| 20260906060519 | 57 | 348 | 9.0 | 15.0 | 0.00 | 0.00 | 0.00 | 80 | 1020.9 |
| 20260906060043 | 57 | 338 | 11.0 | 15.0 | 0.00 | 0.00 | 0.00 | 80 | 1021.0 |
| 20260906055522 | 57 | 344 | 8.0 | 12.0 | 0.00 | 0.00 | 0.00 | 80 | 1021.1 |
| 20260906055019 | 57 | 347 | 8.0 | 11.0 | 0.00 | 0.00 | 0.00 | 80 | 1021.1 |
| 20260906054546 | 57 | 349 | 6.0 | 10.0 | 0.00 | 0.00 | 0.00 | 80 | 1021.2 |
| 20260906054022 | 57 | 5 | 4.0 | 10.0 | 0.00 | 0.00 | 0.00 | 79 | 1021.0 |
| 20260906053523 | 58 | 339 | 6.0 | 10.0 | 0.00 | 0.00 | 0.00 | 79 | 1021.3 |
| 20260906053044 | 58 | 350 | 7.0 | 12.0 | 0.00 | 0.00 | 0.00 | 79 | 1021.4 |
| 20260906052518 | 58 | 346 | 8.0 | 12.0 | 0.00 | 0.00 | 0.00 | 79 | 1021.2 |
| 20260906052020 | 57 | 330 | 7.0 | 10.0 | 0.00 | 0.00 | 0.00 | 79 | 1021.2 |
| 20260906051544 | 57 | 350 | 6.0 | 10.0 | 0.00 | 0.00 | 0.00 | 79 | 1020.9 |
| 20260906051022 | 58 | 350 | 6.0 | 11.0 | 0.00 | 0.00 | 0.00 | 78 | 1020.7 |
| 20260906050524 | 58 | 13 | 7.0 | 12.0 | 0.00 | 0.00 | 0.00 | 78 | 1020.7 |
| 20260906050045 | 58 | 352 | 7.0 | 13.0 | 0.00 | 0.00 | 0.00 | 78 | 1020.7 |
| 20260906045523 | 58 | 5 | 8.0 | 14.0 | 0.00 | 0.00 | 0.00 | 78 | 1020.8 |
| 20260906045018 | 58 | 30 | 9.0 | 15.0 | 0.00 | 0.00 | 0.00 | 78 | 1020.6 |
| 20260906044545 | 58 | 29 | 11.0 | 15.0 | 0.00 | 0.00 | 0.00 | 78 | 1020.4 |
| 20260906044024 | 58 | 19 | 12.0 | 17.0 | 0.00 | 0.00 | 0.00 | 78 | 1020.4 |
| 20260906043519 | 58 | 18 | 12.0 | 17.0 | 0.00 | 0.00 | 0.00 | 77 | 1020.4 |
| 20260906043053 | 58 | 5 | 13.0 | 17.0 | 0.00 | 0.00 | 0.00 | 77 | 1020.6 |
| 20260906042517 | 58 | 325 | 9.0 | 15.0 | 0.00 | 0.00 | 0.00 | 78 | 1020.8 |
| 20260906042018 | 58 | 351 | 9.0 | 13.0 | 0.00 | 0.00 | 0.00 | 78 | 1020.9 |
| 20260906041551 | 58 | 330 | 8.0 | 11.0 | 0.00 | 0.00 | 0.00 | 78 | 1020.8 |
| 20260906041022 | 58 | 344 | 7.0 | 11.0 | 0.00 | 0.00 | 0.00 | 77 | 1021.0 |
| 20260906040519 | 58 | 314 | 7.0 | 12.0 | 0.00 | 0.00 | 0.00 | 76 | 1021.1 |
| 20260906040047 | 59 | 351 | 8.0 | 14.0 | 0.00 | 0.00 | 0.00 | 76 | 1020.9 |
| 20260906035519 | 59 | 349 | 10.0 | 14.0 | 0.00 | 0.00 | 0.00 | 75 | 1020.5 |
| 20260906035018 | 59 | 349 | 10.0 | 13.0 | 0.00 | 0.00 | 0.00 | 75 | 1020.4 |
| 20260906034602 | 59 | 352 | 10.0 | 16.0 | 0.00 | 0.00 | 0.00 | 75 | 1020.2 |
| 20260906034019 | 60 | 360 | 11.0 | 16.0 | 0.00 | 0.00 | 0.00 | 75 | 1020.0 |
| 20260906033517 | 60 | 333 | 10.0 | 15.0 | 0.00 | 0.00 | 0.00 | 74 | 1019.9 |
| 20260906033055 | 60 | 352 | 10.0 | 14.0 | 0.00 | 0.00 | 0.00 | 74 | 1019.9 |
| 20260906032520 | 60 | 360 | 10.0 | 15.0 | 0.00 | 0.00 | 0.00 | 74 | 1019.9 |
| 20260906032024 | 60 | 347 | 11.0 | 15.0 | 0.00 | 0.00 | 0.00 | 73 | 1019.7 |
| 20260906031534 | 60 | 352 | 10.0 | 15.0 | 0.00 | 0.00 | 0.00 | 73 | 1019.7 |
| 20260906031022 | 60 | 348 | 10.0 | 16.0 | 0.00 | 0.00 | 0.00 | 73 | 1019.6 |
| 20260906030519 | 61 | 344 | 11.0 | 16.0 | 0.00 | 0.00 | 0.00 | 72 | 1019.4 |
| 20260906030059 | 61 | 338 | 12.0 | 16.0 | 0.00 | 0.00 | 0.00 | 72 | 1019.4 |
| 20260906025520 | 61 | 5 | 12.0 | 15.0 | 0.00 | 0.00 | 0.00 | 72 | 1019.3 |
| 20260906025020 | 61 | 14 | 12.0 | 15.0 | 0.00 | 0.00 | 0.00 | 72 | 1019.2 |
| 20260906024556 | 61 | 350 | 10.0 | 17.0 | 0.00 | 0.00 | 0.00 | 71 | 1019.4 |
| 20260906024020 | 61 | 346 | 12.0 | 19.0 | 0.00 | 0.00 | 0.00 | 71 | 1019.2 |
| 20260906023520 | 61 | 333 | 13.0 | 19.0 | 0.00 | 0.00 | 0.00 | 70 | 1019.0 |
| 20260906023052 | 61 | 5 | 12.0 | 17.0 | 0.00 | 0.00 | 0.00 | 70 | 1019.1 |
| 20260906022519 | 62 | 300 | 13.0 | 18.0 | 0.00 | 0.00 | 0.00 | 70 | 1019.0 |
| 20260906022019 | 62 | 345 | 13.0 | 18.0 | 0.00 | 0.00 | 0.00 | 69 | 1019.1 |
| 20260906021551 | 62 | 360 | 13.0 | 19.0 | 0.00 | 0.00 | 0.00 | 69 | 1018.8 |
| 20260906021017 | 62 | 345 | 13.0 | 19.0 | 0.00 | 0.00 | 0.00 | 68 | 1019.1 |
| 20260906020522 | 62 | 329 | 12.0 | 19.0 | 0.00 | 0.00 | 0.00 | 68 | 1019.0 |
| 20260906020034 | 62 | 18 | 11.0 | 20.0 | 0.00 | 0.00 | 0.00 | 68 | 1019.1 |
| 20260906015519 | 63 | 340 | 14.0 | 20.0 | 0.00 | 0.00 | 0.00 | 68 | 1019.1 |
| 20260906015021 | 63 | 343 | 10.0 | 17.0 | 0.00 | 0.00 | 0.00 | 68 | 1019.1 |
| 20260906014557 | 63 | 352 | 12.0 | 17.0 | 0.00 | 0.00 | 0.00 | 67 | 1019.0 |
| 20260906014021 | 63 | 338 | 11.0 | 18.0 | 0.00 | 0.00 | 0.00 | 67 | 1019.0 |
| 20260906013518 | 64 | 317 | 12.0 | 21.0 | 0.00 | 0.00 | 0.00 | 67 | 1019.0 |
| 20260906013054 | 64 | 330 | 15.0 | 21.0 | 0.00 | 0.00 | 0.00 | 66 | 1018.9 |
| 20260906012522 | 64 | 330 | 12.0 | 19.0 | 0.00 | 0.00 | 0.00 | 66 | 1018.8 |
| 20260906012020 | 64 | 326 | 12.0 | 23.0 | 0.00 | 0.00 | 0.00 | 65 | 1018.8 |
| 20260906011550 | 64 | 330 | 12.0 | 23.0 | 0.00 | 0.00 | 0.00 | 65 | 1018.6 |
| 20260906011019 | 64 | 345 | 14.0 | 21.0 | 0.00 | 0.00 | 0.00 | 64 | 1018.7 |
| 20260906010517 | 65 | 5 | 14.0 | 20.0 | 0.00 | 0.00 | 0.00 | 63 | 1018.8 |
| 20260906010053 | 65 | 352 | 14.0 | 20.0 | 0.00 | 0.00 | 0.00 | 62 | 1019.0 |
| 20260906005517 | 65 | 338 | 12.0 | 19.0 | 0.00 | 0.00 | 0.00 | 62 | 1019.0 |
| 20260906005017 | 66 | 352 | 13.0 | 20.0 | 0.00 | 0.00 | 0.00 | 61 | 1018.8 |
| 20260906004534 | 66 | 19 | 14.0 | 23.0 | 0.00 | 0.00 | 0.00 | 60 | 1019.0 |
| 20260906004025 | 67 | 360 | 12.0 | 19.0 | 0.00 | 0.00 | 0.00 | 57 | 1018.9 |
| 20260906003518 | 67 | 340 | 15.0 | 21.0 | 0.00 | 0.00 | 0.00 | 56 | 1018.8 |
| 20260906003054 | 68 | 346 | 14.0 | 21.0 | 0.00 | 0.00 | 0.00 | 53 | 1018.9 |
| 20260906002518 | 69 | 352 | 14.0 | 21.0 | 0.00 | 0.00 | 0.00 | 50 | 1018.8 |
| 20260906002018 | 71 | 352 | 15.0 | 21.0 | 0.00 | 0.00 | 0.00 | 47 | 1019.0 |
| 20260906001553 | 71 | 15 | 15.0 | 19.0 | 0.00 | 0.00 | 0.00 | 46 | 1018.9 |
| 20260906001017 | 72 | 338 | 13.0 | 19.0 | 0.00 | 0.00 | 0.00 | 45 | 1018.8 |
| 20260906000517 | 72 | 331 | 13.0 | 18.0 | 0.00 | 0.00 | 0.00 | 45 | 1019.0 |
| 20260906000052 | 72 | 350 | 15.0 | 18.0 | 0.00 | 0.00 | 0.00 | 44 | 1018.9 |
| 20260905235519 | 73 | 337 | 13.0 | 19.0 | 0.00 | 0.00 | 0.00 | 43 | 1018.9 |
| 20260905235023 | 73 | 336 | 14.0 | 19.0 | 0.00 | 0.00 | 0.00 | 43 | 1019.1 |
| 20260905234556 | 74 | 320 | 14.0 | 18.0 | 0.00 | 0.00 | 0.00 | 41 | 1018.9 |
| 20260905234020 | 75 | 348 | 10.0 | 18.0 | 0.00 | 0.00 | 0.00 | 37 | 1018.9 |
| 20260905233525 | 75 | 352 | 11.0 | 18.0 | 0.00 | 0.00 | 0.00 | 35 | 1018.8 |
| 20260905233050 | 76 | 335 | 9.0 | 15.0 | 0.00 | 0.00 | 0.00 | 36 | 1018.8 |
| 20260905232520 | 76 | 331 | 10.0 | 15.0 | 0.00 | 0.00 | 0.00 | 35 | 1018.8 |
| 20260905232018 | 76 | 328 | 10.0 | 14.0 | 0.00 | 0.00 | 0.00 | 36 | 1018.8 |
| 20260905231552 | 76 | 352 | 8.0 | 14.0 | 0.00 | 0.00 | 0.00 | 35 | 1018.9 |
| 20260905231020 | 76 | 341 | 8.0 | 14.0 | 0.00 | 0.00 | 0.00 | 36 | 1018.9 |
| 20260905230518 | 76 | 340 | 8.0 | 15.0 | 0.00 | 0.00 | 0.00 | 36 | 1018.9 |
| 20260905230105 | 76 | 339 | 10.0 | 15.0 | 0.00 | 0.00 | 0.00 | 35 | 1018.9 |
| 20260905225519 | 76 | 315 | 6.0 | 16.0 | 0.00 | 0.00 | 0.00 | 36 | 1019.1 |
| 20260905225019 | 76 | 346 | 10.0 | 16.0 | 0.00 | 0.00 | 0.00 | 36 | 1019.0 |
| 20260905224559 | 76 | 346 | 11.0 | 16.0 | 0.00 | 0.00 | 0.00 | 35 | 1018.8 |
| 20260905224020 | 76 | 352 | 11.0 | 14.0 | 0.00 | 0.00 | 0.00 | 34 | 1018.9 |
| 20260905223519 | 76 | 315 | 8.0 | 12.0 | 0.00 | 0.00 | 0.00 | 35 | 1019.0 |